Temperature
32 32 31 32 33 32 33 33 33 33 35 34 33 32 33 33 32 31 30 29 28 27 26 25 24 24 23 22 22 21 21 21 20 20 20 20 20 20 20 20 20 19 19 19
32 32 33 34 34 34 33 33 33 34 35 34 33 33 33 33 32 31 30 29 28 27 26 25 25 24 23 22 22 21 21 21 21 20 20 20 20 20 20 20 19 19 19 19
31 33 34 34 34 33 33 33 34 33 34 34 32 31 32 32 32 32 31 30 29 28 27 26 25 24 23 23 22 21 21 21 21 21 20 20 20 20 20 19 19 19 19 19
33 34 34 34 34 34 33 34 34 34 33 32 32 30 30 31 31 32 31 30 29 28 27 26 25 24 24 23 22 22 21 21 21 20 20 20 20 20 19 19 19 19 19 19
32 34 34 33 34 34 34 35 34 33 32 31 31 30 29 30 30 31 31 31 30 29 27 26 25 24 24 23 22 22 21 21 21 20 20 20 19 19 19 19 19 19 19 19
33 35 35 34 35 35 35 34 33 32 31 29 30 30 29 29 30 30 31 30 30 29 28 26 25 24 24 23 23 22 21 21 20 20 20 19 19 19 19 19 19 19 19 19
33 34 35 35 34 35 35 33 30 30 29 30 31 30 29 31 31 31 31 30 30 29 28 27 26 25 24 23 23 22 21 21 20 20 20 20 19 19 19 19 19 19 19 19
31 32 34 35 34 33 34 33 30 29 30 30 31 30 30 32 32 31 31 30 30 29 28 27 26 25 24 23 22 22 21 21 20 20 20 20 20 19 19 19 19 19 18 18
32 32 34 35 35 34 33 33 34 32 31 31 30 30 30 31 32 32 31 30 29 28 28 27 26 25 24 23 22 22 21 21 20 20 20 20 20 19 19 19 19 18 18 18
32 31 33 34 34 34 34 34 33 32 30 30 30 29 28 28 29 31 31 30 29 28 27 26 25 24 24 23 22 22 21 21 20 20 20 20 20 19 19 19 19 19 18 18
33 32 32 33 32 32 33 33 32 32 31 30 29 28 30 29 30 31 30 29 28 27 26 25 25 24 23 23 22 22 21 21 21 20 20 19 19 19 19 18 18 18 18 18
33 32 31 32 33 33 32 32 32 31 30 31 30 29 30 30 30 30 30 29 28 27 26 25 24 23 23 22 22 21 21 21 21 20 20 19 19 19 18 18 18 18 18 18
32 31 30 30 31 31 31 32 32 32 31 30 29 29 30 30 30 29 29 28 27 26 26 25 24 23 22 22 21 21 21 21 20 20 19 19 19 18 18 18 18 18 17 17
31 31 30 29 30 30 30 31 32 31 30 29 29 29 29 29 29 28 28 28 27 26 25 24 23 22 22 21 21 21 21 20 20 20 19 19 18 18 18 18 17 17 17 17
32 31 31 31 31 31 31 31 31 31 31 30 30 29 29 29 29 28 27 27 26 26 25 24 23 22 21 21 21 20 20 20 20 19 19 18 18 18 17 17 17 17 17 17
31 30 30 30 31 31 31 31 31 31 31 31 30 29 30 29 28 27 27 26 26 25 24 23 22 22 21 21 20 20 20 20 19 19 18 18 18 17 17 17 17 17 17 16
30 29 28 29 30 30 29 30 31 31 31 31 30 30 30 29 28 27 26 26 25 24 24 22 21 21 21 20 20 20 19 19 19 18 18 17 17 17 17 17 16 16 16 16
29 28 28 28 28 27 29 31 31 31 31 31 31 30 30 29 28 27 26 25 24 24 23 22 22 21 21 20 20 19 19 18 18 18 17 17 17 17 16 16 16 16 16 16
29 28 27 28 27 28 29 30 30 29 29 30 30 29 28 28 27 26 25 24 24 23 22 22 21 21 20 20 19 18 18 18 17 17 17 16 16 16 16 16 16 16 15 15
29 28 27 27 26 27 28 30 30 30 27 29 29 28 27 27 26 25 24 24 23 22 22 21 21 20 20 19 18 18 18 17 17 16 16 16 16 16 15 15 15 15 15 15
27 27 27 26 26 28 29 30 29 27 26 27 27 27 27 25 25 24 23 23 22 22 21 21 20 20 19 18 18 18 17 17 16 16 16 15 15 15 15 15 15 15 15 15
27 26 26 26 26 26 28 29 27 25 26 26 26 26 25 25 24 23 23 22 21 21 21 20 19 19 18 18 18 17 17 16 16 16 15 15 15 15 15 15 14 14 14 14
27 26 26 26 26 26 26 26 25 25 25 25 26 25 24 24 24 23 22 21 21 20 20 19 19 18 18 17 17 17 16 16 16 15 15 15 15 15 14 14 14 14 14 14
26 26 26 25 26 26 26 25 25 24 25 25 24 24 24 23 23 22 21 20 20 19 19 18 18 17 17 17 16 16 16 15 15 15 15 15 15 14 14 14 14 14 14 14
25 25 25 24 25 25 25 24 24 24 24 24 23 23 23 22 22 21 20 19 19 18 18 18 17 17 16 16 16 15 15 15 14 14 14 14 14 14 14 14 14 14 14 14
25 24 23 23 23 24 23 23 23 23 23 22 22 22 22 21 21 20 19 19 18 18 17 17 17 16 16 15 15 15 15 14 14 14 14 14 14 14 14 14 13 13 13 13
Wind_Speed
12 11 9 8 8 9 10 6 4 3 3 3 3 6 6 6 8 9 9 10 10 9 10 10 9 10 10 8 8 7 6 5 3 3 3 2 2 2 1 1 2 1 0 1
11 12 11 12 11 9 10 8 6 4 3 3 2 3 6 7 8 9 9 9 9 10 10 10 10 9 10 10 9 7 6 6 5 3 2 1 1 1 1 1 2 1 0 2
14 12 11 12 11 10 9 9 7 6 6 4 3 3 5 6 8 9 9 10 11 11 12 11 9 9 10 10 10 9 7 6 6 4 3 1 1 0 0 1 1 1 1 2
15 13 11 10 10 10 9 9 9 8 7 6 5 2 3 4 5 8 9 10 10 11 12 11 10 9 9 10 10 8 7 6 6 5 3 3 2 1 1 1 1 1 1 1
14 13 12 12 10 10 10 9 8 9 8 8 7 4 3 5 6 7 8 10 10 10 11 10 10 9 9 9 10 9 8 6 6 5 4 3 2 1 1 1 1 1 1 1
16 14 13 13 12 11 11 10 9 8 7 9 8 6 3 5 7 7 8 8 9 10 10 10 9 9 8 8 8 9 8 7 6 5 4 3 2 1 0 0 0 1 1 1
17 17 14 13 13 12 11 9 6 7 7 9 7 4 2 5 7 8 9 9 9 9 10 10 10 10 8 7 7 8 9 7 6 6 4 4 3 2 2 2 1 2 1 1
13 12 13 12 12 12 11 10 9 8 9 7 3 3 3 2 5 6 9 9 9 9 8 9 10 10 9 9 8 8 9 7 7 6 5 4 3 2 2 2 2 2 1 1
12 11 10 11 11 12 12 11 11 11 12 10 4 3 1 1 4 5 6 8 8 8 8 8 9 9 9 9 8 8 9 7 7 6 6 5 4 2 1 2 2 1 1 1
13 12 12 10 9 12 13 11 9 8 8 9 5 3 3 3 4 6 6 6 7 6 5 6 8 7 7 7 6 6 7 7 7 6 5 5 4 4 3 2 1 0 0 1
13 13 11 10 9 10 10 11 9 8 8 9 6 2 2 3 1 2 6 5 6 7 6 6 6 7 6 6 7 6 6 6 6 5 4 3 4 4 3 2 1 1 1 1
10 11 10 10 8 8 10 11 10 8 8 8 7 2 3 1 2 1 3 6 6 7 6 7 6 5 6 6 5 4 5 5 5 4 3 3 3 3 3 3 2 2 1 1
6 8 9 9 7 7 9 11 10 10 8 8 8 3 4 2 3 2 3 5 7 6 6 7 6 4 5 5 4 3 3 4 4 4 3 2 2 2 2 2 2 2 2 2
6 10 11 10 6 7 10 12 11 9 8 8 8 4 3 3 3 3 4 4 5 6 5 6 5 5 5 4 3 2 2 3 3 3 3 3 2 2 2 2 2 2 2 2
8 11 10 11 9 10 10 11 10 10 10 10 7 4 3 3 3 3 2 4 4 4 5 5 5 4 4 3 2 2 2 2 2 2 2 2 2 2 2 2 2 2 2 3
8 10 11 12 12 11 11 12 11 10 10 9 7 3 3 4 4 4 4 4 3 3 5 5 4 3 3 2 2 1 2 2 2 2 2 1 2 2 2 2 2 2 2 2
8 8 10 12 11 12 14 12 11 9 8 8 5 1 2 2 4 5 5 4 4 4 4 4 3 1 2 1 1 0 1 2 2 1 1 1 1 2 2 3 3 3 3 2
8 8 7 10 10 14 9 6 6 7 7 5 2 1 2 2 3 4 6 6 4 3 3 3 2 1 1 1 1 0 1 1 1 1 0 0 1 1 2 3 3 3 2 2
9 8 9 10 12 12 10 7 5 5 4 4 2 2 4 2 3 5 6 6 5 4 4 3 1 1 2 3 2 2 0 1 1 0 1 1 1 2 3 3 3 2 2 3
11 8 9 10 12 13 7 3 3 4 4 2 3 2 3 2 1 3 5 6 6 5 4 3 2 2 3 3 3 1 0 0 0 1 2 2 2 3 4 3 2 2 2 3
9 10 12 12 13 10 3 1 3 5 1 5 4 3 3 4 3 4 6 5 5 4 3 3 3 2 2 2 2 1 1 1 2 2 2 2 2 3 2 1 1 2 2 3
9 9 9 10 13 6 5 2 1 3 4 4 3 3 3 5 5 5 5 5 4 4 3 3 3 3 3 3 2 1 1 2 1 1 2 2 2 3 2 1 2 3 3 3
6 4 4 3 3 3 5 5 4 4 3 3 3 3 2 2 4 5 4 3 3 3 3 3 3 3 3 3 2 1 1 2 2 1 1 2 2 2 2 2 3 3 3 3
2 3 4 4 2 2 3 4 4 2 2 3 2 2 2 2 3 3 3 3 3 3 3 3 3 2 2 2 1 1 2 2 2 2 2 2 2 2 2 2 2 2 2 3
5 4 4 4 4 5 4 4 3 2 3 3 3 4 3 3 3 3 2 2 2 2 2 2 2 2 2 2 1 1 2 2 3 3 3 3 3 2 2 2 2 3 2 1
7 4 4 3 2 5 4 5 6 4 3 3 3 4 4 3 2 2 2 3 2 1 2 2 2 2 2 2 2 2 2 2 3 3 3 3 3 2 2 2 2 3 2 1
Wind_Direction
244 243 260 270 258 249 271 279 273 256 162 196 170 149 157 164 150 150 154 151 152 153 155 153 161 158 150 148 147 152 157 149 152 161 167 166 175 191 179 176 126 127 317 315
253 249 254 265 268 266 275 280 283 292 247 231 194 167 162 165 166 161 156 154 159 158 154 155 161 159 156 153 154 156 158 156 165 168 166 172 169 193 178 164 120 132 344 316
242 253 255 256 267 271 272 280 277 269 249 231 209 207 174 171 168 158 156 159 167 165 160 160 163 163 163 161 162 168 164 162 167 165 166 166 142 266 93 117 121 163 225 238
250 254 259 264 267 271 276 283 292 285 279 267 239 231 181 170 187 170 166 167 170 165 162 161 163 164 167 165 164 159 155 159 163 168 171 183 179 188 214 199 174 197 215 235
251 249 253 257 261 270 278 288 292 290 285 280 257 247 184 166 196 190 180 173 167 162 160 159 164 165 167 165 162 155 152 153 158 175 173 188 194 197 213 207 161 226 210 199
253 248 244 253 261 262 269 278 279 278 268 262 259 264 210 184 190 187 186 174 159 158 157 156 158 158 161 160 155 149 147 153 159 168 170 182 191 185 246 242 202 251 235 198
248 246 244 245 258 260 258 267 275 274 257 250 228 233 235 172 175 172 173 164 157 157 160 160 159 156 154 153 148 147 148 155 160 164 174 174 185 201 207 250 238 261 265 202
246 245 242 243 247 258 257 259 262 272 280 274 252 201 184 138 131 152 148 145 148 156 160 160 157 154 158 156 148 149 151 159 166 170 173 171 171 211 211 218 256 274 297 314
255 252 249 252 254 258 260 259 260 268 272 274 246 186 153 28 117 125 130 132 141 149 155 152 148 152 156 156 156 155 152 160 168 174 170 172 177 194 205 220 231 269 312 303
252 261 253 249 257 252 254 263 270 268 273 277 253 229 201 181 196 157 136 134 130 119 121 128 135 137 141 145 149 147 154 160 164 173 183 182 182 191 201 215 201 214 308 339
244 251 254 248 249 266 262 256 263 280 281 281 283 232 164 185 232 138 132 125 117 112 117 120 122 132 133 139 144 152 163 162 162 168 170 172 176 175 179 197 204 217 263 269
245 256 255 253 252 264 272 270 263 268 278 279 284 240 155 186 112 48 119 126 113 112 120 116 109 114 120 123 128 148 154 153 156 154 162 176 174 180 189 192 201 208 217 236
282 262 260 254 249 256 256 260 264 265 269 273 275 221 153 144 117 99 97 115 112 109 112 120 118 119 119 119 120 130 147 153 156 152 167 170 182 187 198 202 200 208 221 235
275 260 264 265 259 256 253 258 258 266 268 267 271 229 183 154 90 65 81 101 107 109 107 110 120 117 111 117 120 137 141 143 142 144 166 172 182 184 211 224 214 214 232 245
258 261 264 274 274 264 263 265 266 260 266 267 272 251 204 158 141 121 101 95 92 95 102 103 103 112 121 126 138 147 147 136 138 145 163 170 179 184 207 223 238 235 243 258
259 268 267 266 271 273 270 272 268 268 265 258 256 240 154 152 121 115 122 117 112 109 105 100 92 106 119 120 135 159 160 146 142 158 168 183 187 196 217 220 228 236 241 252
262 262 267 264 265 274 266 265 264 264 267 267 262 207 92 84 101 124 120 116 102 98 106 111 121 124 134 123 115 241 166 136 149 166 187 208 203 210 232 246 242 245 244 252
270 280 268 265 263 260 264 283 286 279 282 289 298 335 56 61 76 101 113 105 92 84 91 96 96 78 122 117 120 176 159 151 138 139 145 247 234 254 258 260 256 259 267 266
258 262 265 268 266 262 257 262 271 276 285 325 328 52 53 39 104 103 96 97 86 72 70 86 80 62 83 95 87 77 129 135 137 228 282 287 273 267 265 265 253 248 253 257
232 234 249 257 263 266 264 271 280 267 243 350 22 48 57 31 307 100 85 85 80 70 62 71 65 53 66 69 80 91 272 63 336 297 286 281 274 273 270 268 273 270 262 258
234 233 240 252 258 264 305 273 264 264 304 28 26 52 63 68 54 84 81 74 71 65 62 64 70 75 77 76 83 64 343 351 330 311 297 285 283 284 275 290 309 286 271 269
244 243 242 248 253 257 9 327 19 71 42 37 19 30 49 81 95 89 78 66 55 52 52 42 51 59 68 77 83 63 6 357 347 334 313 305 298 291 300 315 281 266 264 262
254 272 278 278 275 39 34 46 63 73 36 14 15 37 55 63 88 86 81 72 49 37 36 22 32 62 61 59 47 6 355 339 323 308 302 303 299 301 311 280 276 268 268 273
285 339 301 285 287 357 21 32 35 14 9 347 23 52 32 52 73 78 76 66 42 19 17 21 24 28 30 39 32 6 358 338 308 291 290 280 271 280 301 294 281 277 281 288
311 292 281 282 320 327 339 358 342 349 5 7 33 26 10 51 69 60 67 71 64 34 359 17 18 6 6 7 20 5 353 337 316 298 289 286 284 285 294 294 299 288 292 265
294 301 292 303 337 302 329 342 347 354 12 19 19 22 18 31 43 46 57 62 52 26 21 22 25 27 17 6 3 5 358 350 320 298 290 290 287 285 277 276 311 346 308 237
Height
1476 1478 1479 1474 1468 1469 1468 1470 1471 1464 1458 1461 1466 1468 1469 1470 1473 1477 1481 1485 1489 1493 1496 1498 1501 1503 1505 1506 1508 1509 1511 1512 1513 1514 1515 1516 1517 1518 1519 1519 1519 1519 1519 1519
1477 1477 1470 1466 1463 1463 1465 1470 1468 1463 1456 1459 1465 1467 1466 1468 1471 1475 1479 1483 1487 1491 1494 1497 1499 1501 1503 1505 1506 1508 1509 1511 1512 1513 1515 1516 1517 1517 1518 1518 1518 1518 1518 1518
1478 1470 1463 1463 1464 1466 1465 1467 1465 1465 1457 1456 1466 1474 1469 1467 1469 1473 1477 1481 1484 1488 1491 1495 1497 1499 1501 1503 1504 1506 1508 1509 1511 1512 1514 1515 1516 1517 1518 1518 1517 1517 1517 1517
1468 1463 1462 1463 1464 1463 1469 1457 1457 1460 1467 1473 1470 1489 1476 1470 1470 1471 1474 1478 1481 1485 1488 1492 1495 1497 1499 1501 1503 1505 1506 1508 1509 1511 1513 1514 1514 1515 1516 1517 1517 1517 1517 1516
1467 1462 1462 1464 1461 1459 1461 1454 1457 1460 1468 1475 1473 1484 1482 1471 1475 1471 1472 1475 1478 1482 1486 1489 1492 1495 1498 1500 1501 1503 1504 1506 1508 1509 1511 1512 1513 1514 1515 1516 1516 1516 1516 1515
1460 1457 1457 1457 1455 1454 1454 1456 1459 1462 1471 1490 1478 1483 1485 1472 1471 1469 1470 1473 1476 1480 1484 1487 1490 1493 1496 1499 1500 1502 1503 1505 1506 1508 1509 1510 1511 1512 1513 1514 1514 1514 1514 1514
1464 1456 1451 1452 1457 1454 1455 1467 1486 1492 1492 1488 1468 1477 1480 1463 1461 1463 1466 1470 1474 1478 1482 1486 1488 1491 1494 1497 1498 1500 1501 1503 1504 1506 1507 1509 1510 1511 1511 1512 1512 1513 1513 1512
1472 1468 1452 1450 1454 1458 1456 1463 1487 1501 1497 1483 1470 1478 1471 1458 1459 1461 1464 1468 1472 1477 1480 1484 1486 1489 1492 1495 1497 1499 1500 1501 1503 1504 1506 1507 1508 1509 1510 1511 1511 1511 1511 1511
1466 1465 1449 1447 1447 1451 1457 1458 1455 1469 1474 1479 1478 1473 1465 1459 1458 1461 1464 1468 1472 1475 1479 1482 1485 1488 1491 1493 1496 1497 1498 1500 1502 1503 1504 1505 1506 1507 1508 1509 1509 1509 1509 1509
1455 1465 1452 1446 1447 1446 1448 1450 1456 1467 1486 1491 1482 1480 1479 1472 1465 1461 1465 1467 1471 1475 1478 1482 1484 1486 1490 1492 1494 1495 1497 1498 1500 1502 1503 1504 1504 1505 1506 1507 1507 1507 1507 1507
1448 1459 1457 1450 1455 1456 1453 1454 1456 1461 1465 1481 1490 1488 1464 1465 1463 1462 1465 1468 1471 1475 1479 1482 1484 1486 1488 1491 1493 1495 1496 1497 1498 1500 1501 1502 1503 1503 1504 1505 1505 1505 1505 1505
1445 1451 1459 1454 1446 1446 1451 1453 1455 1471 1473 1468 1478 1483 1458 1460 1461 1463 1465 1468 1472 1474 1478 1481 1484 1486 1489 1490 1492 1493 1495 1496 1497 1499 1499 1500 1501 1502 1502 1502 1503 1503 1503 1503
1447 1454 1468 1467 1461 1453 1454 1452 1453 1455 1462 1470 1479 1479 1458 1461 1462 1464 1467 1469 1472 1475 1478 1481 1484 1486 1488 1490 1491 1493 1495 1496 1497 1497 1498 1499 1499 1500 1500 1501 1501 1501 1501 1500
1450 1453 1463 1473 1466 1458 1458 1455 1451 1456 1466 1471 1470 1469 1463 1462 1464 1467 1469 1471 1473 1476 1479 1482 1484 1486 1488 1489 1491 1492 1494 1495 1495 1496 1497 1497 1497 1498 1498 1499 1498 1498 1498 1498
1447 1455 1454 1453 1451 1450 1453 1453 1451 1455 1457 1464 1463 1463 1462 1461 1463 1467 1471 1472 1474 1478 1481 1482 1485 1485 1487 1489 1490 1491 1492 1493 1494 1494 1495 1495 1495 1496 1496 1496 1496 1496 1495 1495
1448 1455 1456 1457 1451 1449 1452 1450 1448 1450 1451 1455 1457 1460 1456 1460 1463 1466 1470 1474 1476 1478 1481 1482 1485 1486 1487 1487 1489 1490 1491 1492 1492 1493 1493 1493 1493 1493 1494 1494 1493 1492 1492 1491
1450 1455 1462 1464 1454 1455 1461 1450 1449 1449 1448 1450 1457 1457 1455 1458 1463 1467 1471 1473 1476 1478 1481 1482 1485 1485 1486 1487 1487 1489 1490 1490 1491 1491 1491 1491 1491 1491 1491 1491 1490 1489 1489 1488
1455 1458 1460 1462 1463 1478 1456 1441 1442 1446 1447 1446 1448 1451 1455 1460 1464 1467 1470 1473 1476 1478 1480 1482 1483 1485 1485 1486 1486 1487 1488 1488 1489 1489 1489 1489 1489 1488 1488 1488 1487 1486 1486 1485
1452 1458 1463 1465 1469 1464 1452 1443 1444 1450 1452 1449 1451 1454 1458 1461 1465 1469 1471 1474 1476 1479 1480 1481 1483 1484 1484 1485 1485 1486 1486 1487 1487 1487 1487 1487 1487 1486 1485 1485 1484 1483 1483 1482
1450 1453 1462 1465 1472 1473 1455 1444 1444 1449 1459 1452 1453 1456 1459 1462 1467 1471 1472 1474 1476 1479 1480 1481 1482 1483 1483 1484 1484 1484 1485 1485 1485 1485 1485 1485 1484 1484 1483 1482 1481 1480 1480 1479
1455 1457 1461 1464 1467 1458 1446 1445 1447 1464 1466 1457 1457 1459 1461 1465 1469 1472 1474 1476 1478 1479 1480 1481 1481 1482 1482 1483 1483 1483 1484 1483 1483 1483 1483 1482 1482 1481 1481 1480 1479 1478 1477 1476
1454 1458 1460 1461 1466 1464 1449 1448 1455 1462 1460 1460 1460 1461 1464 1466 1469 1472 1474 1477 1478 1479 1480 1480 1481 1481 1481 1481 1482 1482 1482 1482 1481 1481 1480 1480 1479 1479 1479 1477 1476 1476 1475 1473
1449 1453 1454 1458 1460 1455 1454 1456 1459 1460 1462 1462 1462 1463 1466 1468 1470 1472 1475 1477 1479 1479 1479 1480 1480 1480 1480 1480 1481 1480 1480 1480 1479 1479 1478 1477 1477 1477 1476 1475 1474 1473 1472 1471
1449 1450 1454 1456 1453 1454 1456 1457 1460 1462 1463 1463 1464 1465 1467 1468 1470 1473 1475 1477 1478 1479 1479 1479 1479 1479 1479 1479 1479 1479 1478 1478 1477 1476 1476 1475 1475 1474 1474 1473 1472 1471 1470 1469
1455 1455 1455 1457 1457 1457 1458 1460 1462 1462 1463 1464 1466 1467 1468 1469 1471 1473 1475 1476 1477 1478 1478 1478 1477 1478 1478 1478 1478 1477 1477 1476 1475 1474 1474 1473 1473 1472 1471 1470 1470 1469 1467 1467
1453 1455 1458 1460 1461 1462 1462 1461 1462 1463 1464 1465 1466 1467 1469 1470 1471 1473 1474 1475 1476 1477 1477 1476 1476 1476 1477 1476 1475 1475 1474 1474 1473 1472 1472 1471 1471 1470 1469 1468 1466 1466 1465 1464